Regional Weather Roundup
Issued by NWS

Home | Current Version | Previous Version | Graphics & Text | Print | Product List | Glossary On
Versions: 1 2 3 4 5 6 7 8 9 10 11 12 13 14 15 16 17 18 19 20 21 22 23 24 25 26 27
000
ASUS45 KBOU 121410
RWRCO

WEATHER ROUNDUP FOR COLORADO
NATIONAL WEATHER SERVICE DENVER/BOULDER CO
700 AM MST TUE DEC 12 2017

NOTE: "FAIR" INDICATES FEW OR NO CLOUDS BELOW 12000 FEET WITH NO
SIGNIFICANT WEATHER AND/OR OBSTRUCTIONS TO VISIBILITY.

COZ001>005-013-030-031-121500-
...NORTHWEST COLORADO...

CITY           SKY/WX    TMP DP  RH WIND       PRES   REMARKS
CRAIG          FAIR       7   2  80 CALM      30.55S
HAYDEN         FAIR      20  11  68 E15       30.55S WCI   6
MEEKER         FAIR      14   8  77 CALM      30.53F
RABBIT EARS PA FAIR      27   7  43 W12G20    30.57S WCI  16
STEAMBOAT SPGS FAIR      16  11  80 CALM      30.56S
WALDEN         FAIR       9   3  78 CALM      30.55S
$$

COZ006>008-011-121500-
...WEST CENTRAL VALLEYS...

CITY           SKY/WX    TMP DP  RH WIND       PRES   REMARKS
GRAND JUNCTION FAIR      24   4  42 SE5       30.53S WCI  18
MONTROSE       FAIR      20   8  60 S8        30.57S WCI  10
EAGLE          FAIR       8   4  83 CALM      30.67R
RIFLE          FAIR      18   8  65 E5        30.58R WCI  11
DELTA          FAIR      19   0  44 CALM      30.57S
NUCLA          FAIR      21   0  39 SE6       30.56R WCI  14
$$

COZ017>023-064>068-121500-
...SOUTHWEST COLORADO...

CITY           SKY/WX    TMP DP  RH WIND       PRES   REMARKS
DURANGO        FAIR      12   1  61 E3        30.51R
CORTEZ         FAIR      10   0  63 NE7       30.52R WCI  -1
PAGOSA SPRINGS FAIR      19   0  43 CALM      30.53R
TELLURIDE      FAIR      31   0  25 E5        30.57S WCI  27
WOLF CREEK PAS FAIR      32   0  25 NW5       30.67S WCI  27
$$

COZ009-010-012-014-032>034-037-058>063-121500-
...CENTRAL COLORADO...

CITY           SKY/WX    TMP DP  RH WIND       PRES   REMARKS
ASPEN          FAIR      19   9  65 S3        30.56R
BUENA VISTA    FAIR      22   8  55 S6        30.51R WCI  14
COPPER MTN     NOT AVBL
BERTHOUD PASS  FAIR      19   9  63 NW21G36   30.58S WCI   3
COTTONWOOD PAS FAIR      41   5  22 NW10G16   30.54R
GUNNISON       FAIR       6  -1  73 CALM      30.64R
KREMMLING      CLOUDY     5   0  78 CALM      30.65S
LEADVILLE      FAIR      22   6  50 NE9       30.56R WCI  12
MONARCH PASS   FAIR      30   1  29 W13G22    30.72R WCI  20
SALIDA         FAIR      28   9  44 W8        30.58S WCI  20
SUNLIGHT       FAIR      30  10  43 N6        30.64S WCI  24
WILKERSON PASS FAIR      32   5  32 N8G22     30.57S WCI  25
$$

COZ069>075-121500-
...SAN LUIS VALLEY/SANGRE DE CRISTO MOUNTAINS...

CITY           SKY/WX    TMP DP  RH WIND       PRES   REMARKS
ALAMOSA        FAIR       5  -2  72 CALM      30.54R
DEL NORTE      FAIR      20  -2  37 CALM      30.53S
LA VETA PASS   FAIR      28   0  29 SW26        N/A  WCI  13
SAGUACHE       FAIR      27   3  36 SE5       30.53R WCI  21
$$

COZ035-036-038>040-121500-
...NORTHERN COLORADO FRONT RANGE...

CITY           SKY/WX    TMP DP  RH WIND       PRES   REMARKS
DENVER INTL AP FAIR      38   7  27 SW15      30.34S
DMNS CITY PARK NOT AVBL
AURORA         PTCLDY    35   7  31 S10       30.36S WCI  27
FRONT RANGE AP CLEAR     32   9  37 S8        30.35S WCI  25
ERIE MUNI ARPT FAIR      21  14  75 CALM      30.40F
BOULDER MUN AP FAIR      32  12  43 S3        30.34S
CENTENNIAL     FAIR      35  10  35 SE7       30.36S WCI  29
BROOMFIELD     CLEAR     36   9  32 CALM      30.35S
FORT COLLINS   FAIR      28  20  71 SW3       30.34F
LONGMONT       FAIR      24  15  67 W3        30.36F
$$

COZ041-046-047-076>085-087-088-121500-
...PIKES PEAK/PALMER DIVIDE AND SOUTHERN FOOTHILLS...

CITY           SKY/WX    TMP DP  RH WIND       PRES   REMARKS
COLO. SPRINGS  FAIR      26   6  42 N7        30.40S WCI  18
A. F. ACADEMY  FAIR      20   4  50 N12       30.40S WCI   7
SCHRIEVER AFB  FAIR      31   3  29 N6        30.40F WCI  26
CHEYENNE MTN   FAIR      40   3  21 CALM      30.35S
ELLICOTT         N/A    N/A N/A N/A N3        30.38F
FALCON         FAIR      27   3  35 NW7       30.41S WCI  20
FORT CARSON    FAIR      27   6  40 N13       30.38S WCI  16
LIMON          FAIR      15   5  64 N8        30.36F WCI   4
MONUMENT HILL  FAIR      28   5  37 S8        30.41R WCI  20
CANON CITY     FAIR      34   9  35 SW3       30.39S
WALSENBURG     FAIR      25   7  46 W7        30.41S WCI  17
TRINIDAD       FAIR      30   7  37 W12       30.41F WCI  20
$$

COZ042>045-048>051-090-091-121500-
...NORTHEAST COLORADO...

CITY           SKY/WX    TMP DP  RH WIND       PRES   REMARKS
GREELEY ARPT   FAIR      18   8  65 CALM      30.35
AKRON          FAIR      27   8  44 W13       30.32F WCI  16
BURLINGTON     FAIR      25  11  55 W10       30.33F WCI  15
WRAY           FAIR      21  12  68 W9        30.32F WCI  11
YUMA           FAIR      21  10  63 W12       30.31F WCI   9
STERLING       FAIR      19  10  68 S6        30.33F WCI  11
HOLYOKE        FAIR      30  16  55 W10       30.30F WCI  21
FORT MORGAN    FAIR      20  11  69 W10       30.34S WCI   9
$$

COZ086-089-092>099-121500-
...SOUTHEAST COLORADO...

CITY           SKY/WX    TMP DP  RH WIND       PRES   REMARKS
PUEBLO         FAIR      17   6  62 W6        30.40S WCI   9
LA JUNTA       FAIR      23   6  48 W10       30.39F WCI  12
LAMAR          FAIR      20   6  55 W7        30.38F WCI  11
SPRINGFIELD      N/A     20   9  62 W8        30.38F WCI  10
$$




USA.gov is the U.S. government's official web portal to all federal, state and local government web resources and services.